Change the Weather History Date:

Friday, September 27, 2013

  Actual Average Record
Temperature  
Mean Temperature 51 °F 53 °F  
Max Temperature 55 °F 64 °F 90 °F (1909)
Min Temperature 46 °F 41 °F 16 °F (1942)
Degree Days  
Heating Degree Days 14 12  
Month to date heating degree days 103 210  
Since 1 July heating degree days 172 281  
Cooling Degree Days 0 0  
Month to date cooling degree days 50 30  
Year to date cooling degree days 421 441  
Moisture  
Dew Point 44 °F    
Average Humidity 80    
Maximum Humidity 93    
Minimum Humidity 66    
Precipitation  
Precipitation 0.21 in 0.04 in 2.01 in (1982)
Month to date precipitation 2.05 1.32  
Year to date precipitation 22.23 14.76  
Sea Level Pressure  
Sea Level Pressure 29.84 in    
Wind  
Wind Speed 8 mph (West)    
Max Wind Speed 16 mph    
Max Gust Speed 21 mph    
Visibility 10 miles    
Events Rain    
T = Trace of Precipitation, MM = Missing Value Source: NWS Daily Summary

Daily Weather History Graph

Daily Weather History Graph

Search for Another Location

Airport or City:

Trip Planner

Search our weather history database for the weather conditions in past years. The results will help you decide how hot, cold, wet, or windy it might be!

Date:

Astronomy

Sep. 27, 2013 Rise Set
Actual Time 7:39 AM CDT 7:31 PM CDT
Civil Twilight 7:08 AM CDT 8:02 PM CDT
Nautical Twilight 6:31 AM CDT 8:39 PM CDT
Astronomical Twilight 5:54 AM CDT 9:16 PM CDT
Moon 12:10 AM CDT (9/27) 3:36 PM CDT (9/27)
Length of Visible Light 12h 54m
Length of Day
11h 52m
Last Quarter, 45% of the Moon is Illuminated
Sep 27
Last Quarter
Oct 4
New
Oct 11
First Quarter
Oct 18
Full
Oct 26
Last Quarter

Hourly Weather History & Observations

Time (CDT) Temp. Dew Point Humidity Pressure Visibility Wind Dir Wind Speed Gust Speed Precip Events Conditions
12:54 AM 50.0 °F 39.9 °F 68% 29.88 in 10.0 mi WSW 12.7 mph 21.9 mph N/A   Clear
1:54 AM 48.9 °F 39.9 °F 71% 29.88 in 10.0 mi WSW 9.2 mph - N/A   Clear
2:54 AM 48.9 °F 41.0 °F 74% 29.87 in 10.0 mi West 13.8 mph - N/A   Scattered Clouds
3:54 AM 46.9 °F 39.9 °F 77% 29.82 in 10.0 mi West 12.7 mph - N/A   Partly Cloudy
4:54 AM 48.0 °F 41.0 °F 77% 29.82 in 10.0 mi WNW 10.4 mph - N/A   Mostly Cloudy
5:47 AM 48.2 °F 42.8 °F 82% 29.82 in 10.0 mi West 10.4 mph - N/A   Overcast
5:54 AM 48.0 °F 42.1 °F 80% 29.83 in 10.0 mi West 9.2 mph - N/A   Overcast
6:54 AM 48.9 °F 42.1 °F 77% 29.86 in 10.0 mi West 10.4 mph - N/A   Overcast
7:54 AM 48.0 °F 44.1 °F 86% 29.87 in 10.0 mi West 9.2 mph - 0.02 in Rain Light Rain
8:54 AM 48.9 °F 44.1 °F 83% 29.86 in 10.0 mi West 6.9 mph - 0.00 in   Overcast
9:17 AM 48.2 °F 44.6 °F 87% 29.82 in 10.0 mi WNW 4.6 mph - N/A   Overcast
9:54 AM 48.9 °F 45.0 °F 86% 29.88 in 10.0 mi WSW 5.8 mph - N/A   Overcast
10:54 AM 53.1 °F 46.0 °F 77% 29.84 in 10.0 mi WNW 9.2 mph - N/A   Scattered Clouds
11:43 AM 53.6 °F 44.6 °F 72% 29.85 in 10.0 mi WNW 9.2 mph - N/A   Mostly Cloudy
11:54 AM 54.0 °F 46.0 °F 75% 29.86 in 10.0 mi NW 10.4 mph - N/A   Overcast
12:54 PM 53.1 °F 45.0 °F 74% 29.86 in 10.0 mi WNW 9.2 mph - N/A   Overcast
1:51 PM 55.4 °F 44.6 °F 67% 29.82 in 10.0 mi WNW 9.2 mph - N/A   Overcast
1:54 PM 55.0 °F 45.0 °F 69% 29.84 in 10.0 mi WNW 10.4 mph - N/A   Overcast
2:09 PM 53.6 °F 44.6 °F 72% 29.81 in 10.0 mi West 8.1 mph - N/A   Overcast
2:36 PM 55.4 °F 44.6 °F 67% 29.81 in 10.0 mi WNW 8.1 mph - N/A   Overcast
2:54 PM 55.0 °F 44.1 °F 67% 29.82 in 10.0 mi WNW 6.9 mph - N/A   Overcast
3:54 PM 54.0 °F 45.0 °F 72% 29.82 in 10.0 mi WNW 9.2 mph - N/A   Overcast
4:42 PM 53.6 °F 44.6 °F 72% 29.80 in 10.0 mi WNW 9.2 mph - N/A   Overcast
4:54 PM 53.1 °F 44.1 °F 71% 29.82 in 10.0 mi West 12.7 mph - N/A   Overcast
5:03 PM 53.6 °F 44.6 °F 72% 29.79 in 10.0 mi WNW 10.4 mph - N/A   Overcast
5:54 PM 50.0 °F 46.9 °F 89% 29.82 in 10.0 mi WNW 6.9 mph - 0.00 in   Overcast
6:54 PM 50.0 °F 46.9 °F 89% 29.84 in 3.0 mi West 10.4 mph - 0.08 in Rain Rain
7:54 PM 50.0 °F 46.9 °F 89% 29.86 in 7.0 mi WSW 3.5 mph - 0.08 in Rain Light Rain
8:54 PM 50.0 °F 46.0 °F 86% 29.85 in 10.0 mi WSW 4.6 mph - 0.03 in   Overcast
9:54 PM 50.0 °F 46.9 °F 89% 29.85 in 10.0 mi SW 3.5 mph - N/A   Overcast
10:54 PM 50.0 °F 46.9 °F 89% 29.86 in 10.0 mi SW 6.9 mph - N/A   Overcast
11:54 PM 48.9 °F 46.0 °F 90% 29.83 in 10.0 mi SW 4.6 mph - 0.00 in   Overcast